Weather History for Cincinnati, OH

Change the Weather History Date:

Sunday, December 22, 2013

  Actual Average Record
Temperature  
Mean Temperature 52 °F -  
Max Temperature 62 °F 41 °F 64 °F (1949)
Min Temperature 41 °F 23 °F -14 °F (1989)
Degree Days  
Heating Degree Days 14    
Growing Degree Days 2 (Base 50)    
Moisture  
Dew Point 43 °F    
Average Humidity 82    
Maximum Humidity 100    
Minimum Humidity 71    
Precipitation  
Precipitation 0.36 in - - ()
Sea Level Pressure  
Sea Level Pressure 29.80 in    
Wind  
Wind Speed 13 mph (SW)    
Max Wind Speed 18 mph    
Max Gust Speed 29 mph    
Visibility 10 miles    
Events Rain    
Averages and records for this station are not official NWS values.
T = Trace of Precipitation, MM = Missing Value Source: NWS Daily Summary

Daily Weather History Graph

Daily Weather History Graph

Search for Another Location

Airport:

Trip Planner

Search our weather history database for the weather conditions in past years. The results will help you decide how hot, cold, wet, or windy it might be!

Date:

Astronomy

Dec. 22, 2013 Rise Set
Actual Time 7:53 AM EST 5:19 PM EST
Civil Twilight 7:23 AM EST 5:49 PM EST
Nautical Twilight 6:50 AM EST 6:22 PM EST
Astronomical Twilight 6:17 AM EST 6:55 PM EST
Moon 10:28 PM EST (12/22) 10:51 AM EST (12/22)
Length of Visible Light 10h 25m
Length of Day
9h 25m
Waning Gibbous, 77% of the Moon is Illuminated
Dec 22
Waning Gibbous
Dec 25
Last Quarter
Jan 1
New
Jan 7
First Quarter
Jan 15
Full

Hourly Weather History & Observations

Time (EST) Temp. Windchill Dew Point Humidity Pressure Visibility Wind Dir Wind Speed Gust Speed Precip Events Conditions
12:37 AM 62.6 °F - - N/A% 29.64 in 7.0 mi SSW 15.0 mph - 0.09 in Rain Rain
12:53 AM 62.1 °F - - N/A% 29.64 in 7.0 mi SW 9.2 mph - 0.13 in Rain Rain
1:00 AM 62.6 °F - - N/A% 29.64 in 7.0 mi SSW 11.5 mph - 0.01 in Rain Rain
1:04 AM 62.6 °F - - N/A% 29.64 in 8.0 mi SSW 10.4 mph - 0.02 in Rain Light Rain
1:53 AM 61.0 °F - - N/A% 29.62 in 9.0 mi South 11.5 mph - 0.07 in Rain Light Rain
2:53 AM 60.1 °F - - N/A% 29.62 in 10.0 mi South 12.7 mph 23.0 mph 0.04 in Rain Light Rain
3:53 AM 60.1 °F - - N/A% 29.61 in 10.0 mi South 18.4 mph 28.8 mph 0.04 in Rain Light Rain
4:51 AM 60.8 °F - - N/A% 29.65 in 10.0 mi SSW 17.3 mph 26.5 mph 0.02 in Rain Light Rain
4:53 AM 60.1 °F - - N/A% 29.67 in 10.0 mi SSW 17.3 mph 26.5 mph 0.02 in Rain Light Rain
5:29 AM 60.8 °F - - N/A% 29.64 in 10.0 mi SSW 15.0 mph - 0.03 in Rain Light Rain
5:36 AM 60.8 °F - - N/A% 29.63 in 8.0 mi SSW 12.7 mph 21.9 mph 0.03 in Rain Light Rain
5:53 AM 59.0 °F - - N/A% 29.65 in 8.0 mi SSW 16.1 mph 25.3 mph 0.04 in Rain Light Rain
6:03 AM 60.8 °F - - N/A% 29.64 in 10.0 mi South 15.0 mph - 0.00 in   Overcast
6:33 AM 60.8 °F - - N/A% 29.65 in 10.0 mi SSW 16.1 mph 26.5 mph 0.00 in   Overcast
6:53 AM 59.0 °F - - N/A% 29.66 in 9.0 mi SSW 15.0 mph - 0.00 in   Overcast
7:53 AM 59.0 °F - - N/A% 29.73 in 10.0 mi SW 18.4 mph 27.6 mph 0.02 in Rain Light Rain
8:53 AM 55.9 °F - - N/A% 29.77 in 10.0 mi SW 13.8 mph - 0.00 in   Overcast
9:53 AM 55.0 °F - - N/A% 29.80 in 10.0 mi SW 11.5 mph - N/A   Scattered Clouds
10:19 AM 55.4 °F - 55.4 °F 100% 29.82 in 10.0 mi SSW 18.4 mph 21.9 mph N/A   Mostly Cloudy
10:53 AM 55.9 °F - 51.1 °F 84% 29.85 in 10.0 mi SW 15.0 mph 25.3 mph N/A   Mostly Cloudy
11:53 AM 53.1 °F - 46.9 °F 80% 29.88 in 10.0 mi WSW 11.5 mph - N/A   Mostly Cloudy
12:53 PM 52.0 °F - 45.0 °F 77% 29.86 in 10.0 mi SW 16.1 mph 23.0 mph N/A   Partly Cloudy
1:53 PM 53.1 °F - 45.0 °F 74% 29.86 in 10.0 mi SSW 15.0 mph - N/A   Scattered Clouds
2:53 PM 53.1 °F - 45.0 °F 74% 29.88 in 10.0 mi SW 12.7 mph - N/A   Mostly Cloudy
3:53 PM 52.0 °F - 43.0 °F 71% 29.90 in 10.0 mi WSW 16.1 mph 25.3 mph N/A   Clear
4:53 PM 48.9 °F - 42.1 °F 77% 29.93 in 10.0 mi WSW 12.7 mph - N/A   Mostly Cloudy
5:53 PM 48.0 °F - 42.1 °F 80% 29.94 in 10.0 mi SW 9.2 mph - N/A   Scattered Clouds
6:53 PM 46.9 °F - 42.1 °F 83% 29.95 in 10.0 mi South 4.6 mph - N/A   Mostly Cloudy
7:53 PM 48.9 °F - 43.0 °F 80% 29.99 in 10.0 mi WSW 6.9 mph - N/A   Overcast
8:53 PM 45.0 °F 40.1 °F 42.1 °F 90% 29.99 in 10.0 mi NW 9.2 mph - N/A   Overcast
9:26 PM 44.6 °F 39.2 °F 39.2 °F 81% 30.01 in 10.0 mi WNW 10.4 mph - N/A   Overcast
9:53 PM 43.0 °F 38.2 °F 39.9 °F 89% 30.02 in 8.0 mi WNW 8.1 mph - N/A   Overcast
10:49 PM 41.0 °F 36.4 °F 37.4 °F 87% 30.04 in 10.0 mi West 6.9 mph - N/A   Overcast
10:53 PM 41.0 °F 35.8 °F 37.0 °F 86% 30.05 in 10.0 mi WNW 8.1 mph - N/A   Overcast
11:53 PM 41.0 °F 35.8 °F 35.1 °F 79% 30.07 in 10.0 mi West 8.1 mph - N/A   Overcast